Location: ??
(31.6275°N, 34.7940°E)
Time: 17:52:38
(UTC+00:00)

Daily predictions for brighter satellites

Satellite Brightness Start Highest point End
(mag) Time Altitude Azimuth Time Altitude Azimuth Time Altitude Azimuth
CZ-2C R/B 4.5 17:10:09 10° NNE 17:14:31 35° E 17:18:51 10° SSE
Cosmos 1356 Rocket 4.2 17:12:47 10° NNE 17:16:38 33° ENE 17:20:25 10° SE
EXPRESS MD2 3.7 17:18:55 10° WNW 17:21:57 59° SW 17:27:35 10° SE
Cosmos 1626 2.7 17:21:30 10° SSW 17:25:08 61° W 17:28:48 10° N
Cosmos 1818 3.9 17:21:54 10° S 17:26:59 44° ESE 17:32:08 10° NE
CZ-2C R/B 3.9 17:21:30 10° S 17:27:12 61° W 17:32:44 10° NNW
SL-16 R/B 2.3 17:22:37 10° SSW 17:28:17 84° WNW 17:33:59 10° NNE
ARGOS 3.3 17:23:12 10° SSE 17:28:38 85° WSW 17:34:05 10° NNW
SL-08 RB Rocket 3.6 17:28:07 10° SSE 17:32:33 77° ENE 17:37:02 10° N
MetOp-A 4.4 17:28:28 10° SSE 17:33:37 50° ENE 17:38:47 10° N
Resurs 01 Rocket 3.1 17:30:33 10° ESE 17:33:45 21° ENE 17:37:03 10° NNE
CZ-2C R/B 2.6 17:31:01 10° NNE 17:36:23 80° ESE 17:41:37 10° S
USA 215 3.6 17:33:34 10° ENE 17:39:37 39° SE 17:45:37 10° SSW
Meteor 2-14 Rocket 4.5 17:35:10 10° S 17:41:19 87° E 17:47:30 10° N
ATLAS 5 CENTAUR R/B 1.4 17:38:14 10° SSW 17:42:06 53° ESE 17:46:13 10° NE
MONITOR-E 3.4 17:40:14 11° SSE 17:42:32 78° E 17:45:00 10° N
Cosmos 2150 Rocket 4.3 17:39:12 10° N 17:44:17 53° ENE 17:48:46 13° SE
GEOS 3 Rocket 3.9 17:42:33 10° NE 17:47:46 49° ESE 17:52:54 10° SSW
Cosmos 2058 Rocket 3.2 17:43:55 10° N 17:48:26 80° W 17:52:52 10° S
USA 186 3.3 17:46:55 10° SSW 17:50:02 36° W 17:53:08 10° NNW
GMS 1 Rocket 4.5 17:50:33 10° WSW 17:54:21 46° S 17:56:50 19° ESE
Ariane Rocket 3.9 17:51:50 10° S 17:56:45 48° W 18:01:40 10° NNW
Cosmos 1626 Rocket 3.6 17:53:09 10° S 17:57:34 86° W 18:02:03 10° N
Cosmos 1745 Rocket 4.2 17:52:05 10° SSE 17:57:59 51° E 18:03:59 10° NNE
Meteor 2-10 Rocket 4.4 17:53:58 10° NNE 17:58:33 32° ENE 18:01:20 20° SE
Cosmos 2227 4.4 17:53:33 10° NNW 17:59:19 76° WSW 18:04:37 12° SSE
OAO 3 Rocket 3.7 17:59:04 10° WNW 18:03:53 58° N 18:08:24 12° E
Resurs 1-3 3.5 18:05:43 16° SSE 18:09:09 88° ENE 18:13:33 10° NNW
Meteor 1-21 Rocket 4.3 18:03:28 10° S 18:09:18 73° E 18:15:12 10° NNE
H-2A R/B 4.2 18:06:23 10° SSW 18:10:43 24° W 18:15:05 10° NW
SL-08 ROCKET BODY 4.3 18:08:35 10° S 18:14:26 73° E 18:20:25 10° N
BREEZE M DEB (TANK) 3.5 18:12:59 23° SSE 18:14:33 33° ESE 18:21:50 10° NE
Cosmos 1125 Rocket 3.6 18:09:33 10° N 18:14:46 64° ENE 18:17:46 26° SSE
Cosmos 2322 Rocket 3.7 18:10:32 10° SW 18:15:42 38° WNW 18:20:55 10° N
Cosmos 2237 4.5 18:12:26 10° SSW 18:18:07 71° WNW 18:23:51 10° NNE
SPOT 3 Rocket 3.7 18:13:48 15° S 18:18:08 76° WSW 18:23:22 10° NNW
OAO 2 Rocket 3.7 18:20:18 10° W 18:25:35 69° N 18:30:36 12° ENE
Cosmos 1328 4.0 18:26:15 41° SE 18:27:07 50° E 18:30:58 10° NNE
Milstar 3 Cent rocket 4.4 18:28:29 10° SSW 18:29:24 10° SSW 18:30:22 10° S
Cosmos 1825 Rocket 3.5 18:33:11 37° SSE 18:34:47 66° E 18:39:11 10° NNE
COSMOS 2428 3.1 18:33:39 33° SE 18:35:17 41° ESE 18:40:35 10° NE
Geosat 4.1 18:34:36 30° SSE 18:37:07 73° WSW 18:42:08 10° NNW
Cosmos 2322 3.6 18:33:31 10° SSW 18:39:13 84° ESE 18:44:58 10° NNE
SAR-Lupe-2 4.0 18:36:19 10° NNE 18:39:18 45° ENE 18:39:18 45° ENE
Cosmos 1461 3.3 18:35:29 10° NNW 18:40:13 69° WSW 18:41:51 39° S
Cosmos 1703 3.1 18:40:05 44° S 18:41:14 86° W 18:45:07 10° N
Cosmos 1455 2.1 18:37:32 10° N 18:41:23 74° E 18:41:50 64° SE
NOSS 3-3 (A) 3.7 18:36:40 10° SSW 18:42:14 69° ESE 18:48:20 10° NE
NOSS 3-3 (C) 3.7 18:36:46 10° SSW 18:42:20 68° ESE 18:48:27 10° NE
Cosmos 1709 Rocket 4.0 18:39:37 28° SSE 18:43:00 67° E 18:49:17 10° NNE
MetOp-B 4.0 18:46:27 38° SSE 18:48:35 88° ENE 18:53:58 10° NNW
Cosmos 2237 Rocket 4.0 18:51:25 15° ENE 18:51:25 15° ENE 18:53:07 10° ENE
Cosmos 1812 Rocket 3.9 18:45:10 10° NNW 18:49:25 59° W 18:51:00 35° SSW
Delta 2 Rocket 3.8 18:47:35 10° WNW 18:50:48 40° N 18:51:17 37° NNE
Cosmos 2333 4.2 18:45:26 10° SSW 18:51:02 79° WNW 18:56:43 10° NNE
Cosmos 2219 Rocket 2.0 18:49:04 32° S 18:51:38 69° ESE 18:57:11 10° NNE
Atlas Centaur 2 2.4 18:46:39 10° W 18:52:33 81° S 18:56:13 31° E
Terra 3.4 18:52:47 20° ENE 18:52:47 20° ENE 18:56:12 10° NNE
Nadezhda 1 Rocket 4.1 18:46:30 10° N 18:52:55 78° W 18:56:22 29° S
Cosmos 2360 Rocket 3.7 18:48:32 10° SW 18:53:39 35° WNW 18:58:48 10° N
Cosmos 2263 Rocket 3.9 18:50:12 10° NW 18:54:40 25° WSW 18:58:35 12° SSW
Cosmos 1538 Rocket 4.0 18:54:45 50° SSE 18:55:52 62° ESE 19:01:09 10° NNE
IGS 5A 3.3 18:59:07 80° SE 18:59:18 84° E 19:03:28 10° N
Cosmos 2333 Rocket 2.1 18:57:31 23° SSW 19:01:07 89° WNW 19:06:51 10° NNE
DELTA 2 R/B (1) 3.5 18:55:59 10° WSW 19:01:34 83° NNW 19:07:11 10° ENE
Resurs 01 Rocket 3.4 19:08:07 19° SW 19:10:02 26° W 19:13:45 10° NW
ERS-1 Rocket 2.9 19:16:52 65° E 19:16:58 65° ENE 19:21:57 10° N
Cosmos 1315 Rocket 4.4 19:16:09 10° NNE 19:18:31 27° NE 19:18:31 27° NE
Cosmos-2242 3.4 19:18:00 10° NNW 19:22:14 59° W 19:22:14 59° W
USA 215 4.2 19:16:22 10° NNE 19:22:34 47° NW 19:28:45 10° WSW
Cosmos 2221 4.4 19:23:38 10° NNE 19:25:38 20° NE 19:25:38 20° NE
Cosmos 2278 Rocket 3.9 19:27:04 10° NNE 19:31:08 20° ENE 19:31:19 20° ENE
SPOT 5 2.9 19:34:42 79° NNE 19:34:42 79° NNE 19:39:23 10° N
Cosmos 1844 Rocket 2.7 19:30:49 10° NNW 19:36:19 64° WSW 19:36:36 63° SW
USA 81 4.4 19:39:13 54° WSW 19:39:48 58° W 19:45:00 10° N
H-2A ROCKET BODY 4.0 19:33:25 10° W 19:39:50 59° S 20:15:59 10° ESE
Cosmos 2074 Rocket 3.8 19:44:35 80° ESE 19:44:46 81° E 19:51:00 10° N
OAO 3 Rocket 4.0 19:42:40 10° WNW 19:46:11 47° WNW 19:46:11 47° WNW
Cosmos 2181 Rocket 4.0 19:42:32 10° N 19:48:50 74° W 19:49:25 69° SW
Cosmos 1680 Rocket 4.4 19:55:25 42° NE 19:55:25 42° NE 19:58:59 10° NNE
VEP-3 3.7 19:59:09 10° WSW 20:18:55 15° ESE 20:24:11 10° ESE
Cosmos 2344 3.3 20:06:06 75° SSE 20:06:37 79° ESE 20:14:10 10° NNE
BREEZE-M R/B 4.3 19:58:37 10° NW 20:06:42 49° NNE 20:06:42 49° NNE
OAO 2 Rocket 4.2 20:05:28 10° WNW 20:09:33 48° NW 20:09:33 48° NW
Cosmos 1980 4.1 20:15:08 59° NW 20:15:08 59° NW 20:20:10 10° NNE
ATLAS CENTAUR R/B 4.0 20:21:32 10° NNW 20:22:16 15° NNW 20:22:16 15° NNW
Terra 3.6 20:31:41 26° WNW 20:31:41 26° WNW 20:34:27 10° NW
Cosmos 2237 Rocket 3.0 20:33:11 46° WNW 20:33:11 46° WNW 20:38:23 10° N
Atlas Centaur 2 3.7 20:35:20 10° W 20:38:47 33° W 20:38:47 33° W
ATLAS 2AS CENTAUR R/B 3.2 20:52:09 10° NNW 20:59:01 51° NE 20:59:01 51° NE
Cosmos 2278 Rocket 3.7 21:10:01 10° NNW 21:13:09 31° NW 21:13:09 31° NW
SL-16 R/B 3.3 21:18:55 40° NNW 21:18:55 40° NNW 21:22:44 10° N
Cosmos 1943 Rocket 4.1 21:19:27 10° N 21:23:11 21° NE 21:23:11 21° NE
USA 267 3.7 21:34:05 54° NW 21:34:05 54° NW 21:39:00 10° NW
COSMOS 2455 4.0 21:50:29 10° N 21:55:19 37° NE 21:55:19 37° NE
Cosmos 2369 Rocket 3.6 22:03:04 10° N 22:07:04 32° NE 22:07:04 32° NE
Resurs 1-4 Rocket 4.4 22:05:58 10° NE 22:07:40 15° ENE 22:07:40 15° ENE
CZ-2D R/B 3.7 22:34:17 10° NNE 22:37:33 29° ENE 22:37:33 29° ENE
Lacrosse 5 3.8 22:48:42 23° ENE 22:48:42 23° ENE 22:50:46 10° NE
Cosmos 1943 4.4 22:56:06 34° NW 22:56:06 34° NW 23:00:08 10° N
Cosmos 1943 Rocket 3.9 23:02:21 10° NW 23:04:40 23° NW 23:04:40 23° NW
Lacrosse 5 rocket 4.0 23:04:57 10° N 23:06:18 16° NNE 23:06:18 16° NNE
Cosmos 2251 Rocket 4.3 23:17:32 47° ENE 23:17:32 47° ENE 23:21:30 10° NNE
Cosmos 2123 Rocket 4.4 23:10:33 10° NNW 23:15:27 53° NW 23:15:27 53° NW
Iridium 4 Rocket 4.2 23:28:48 54° NW 23:28:48 54° NW 23:33:32 10° N
Cosmos 1153 Rocket 4.4 23:28:18 84° N 23:28:18 84° N 23:34:18 10° N
Cosmos 1459 Rocket 4.4 23:30:42 50° ESE 23:31:17 51° E 23:37:07 10° NNE
SL-16 R/B 2.4 23:31:34 81° ESE 23:31:48 83° ENE 23:38:03 10° NNW
CZ-4B R/B 3.8 23:32:55 10° NNE 23:37:13 63° NNE 23:37:13 63° NNE
CZ-4C R/B 3.0 23:34:24 10° NNW 23:42:11 84° WSW 23:45:19 44° SSE
BREEZE-M TANK 4.2 23:47:12 26° N 23:47:12 26° N 23:48:57 10° NE
Resurs 1-4 Rocket 2.8 23:44:23 10° N 23:48:44 42° NW 23:48:44 42° NW
SeaSat 1 4.2 23:47:55 10° N 23:51:20 21° NW 23:51:20 21° NW
Cosmos 2369 Rocket 4.2 23:47:31 10° NW 23:48:49 15° WNW 23:48:49 15° WNW
